CYBR

Brandon Municipal  Airport

Brandon, Manitoba, Canada
Issued Wind Visibility Ceiling Temperature Dew Point Humidity Barometer
Nov-24
14:00 UTC
280°
13 KTS
15 miles   C
36° F
C
32° F
87% 29.34" Hg
995.8 hPa
VFR
Nov-24
13:00 UTC
280°
14 KTS
15 miles Overcast
15,000' AGL
C
36° F
C
32° F
87% 29.3" Hg
994.3 hPa
VFR
Nov-24
12:00 UTC
280°
12 KTS
15 miles Broken
12,000' AGL
C
36° F
C
32° F
87% 29.29" Hg
994 hPa
VFR
Nov-24
11:00 UTC
270°
9 KTS
15 miles Broken
11,000' AGL
C
34° F
C
32° F
93% 29.26" Hg
992.8 hPa
VFR
Nov-24
10:14 UTC
270°
8 KTS
15 miles Overcast
11,000' AGL
C
34° F
C
34° F
100% 29.25" Hg
992.6 hPa
VFR
Nov-24
10:00 UTC
260°
8 KTS
15 miles Overcast
12,000' AGL
C
34° F
C
34° F
100% 29.26" Hg
992.8 hPa
VFR
Nov-24
09:32 UTC
270°
9 KTS
15 miles Overcast
10,000' AGL
C
36° F
C
34° F
93% 29.27" Hg
993.4 hPa
VFR
Nov-24
09:00 UTC
300°
10 KTS
15 miles Broken
5,000' AGL
C
36° F
C
34° F
93% 29.26" Hg
992.7 hPa
VFR
Nov-24
08:47 UTC
290°
10 KTS
15 miles Overcast
8,400' AGL
C
36° F
C
34° F
93% 29.26" Hg
993.1 hPa
VFR
Nov-24
08:09 UTC
290°
14 KTS
15 miles Overcast
7,200' AGL
C
36° F
C
34° F
93% 29.26" Hg
992.7 hPa
VFR
Nov-24
07:00 UTC
280°
11 KTS
15 miles   C
36° F
C
34° F
93% 29.23" Hg
992.1 hPa
VFR
Nov-24
06:00 UTC
280°
10 KTS
15 miles   C
36° F
C
34° F
93% 29.21" Hg
991.3 hPa
VFR
Nov-24
05:00 UTC
270°
14 KTS
15 miles   C
39° F
C
36° F
87% 29.22" Hg
991.6 hPa
VFR
Nov-24
04:00 UTC
280°
17 KTS
15 miles   C
41° F
C
36° F
81% 29.22" Hg
991.5 hPa
VFR
Nov-24
03:00 UTC
260°
14 KTS
15 miles   C
39° F
C
34° F
81% 29.21" Hg
991.4 hPa
VFR
Nov-24
02:49 UTC
260°
12 KTS
15 miles   C
37° F
C
34° F
87% 29.22" Hg
991.7 hPa
VFR
Nov-24
02:00 UTC
290°
10 KTS
15 miles   -2° C
28° F
-3° C
27° F
93% 29.22" Hg
992.2 hPa
VFR
Nov-24
01:00 UTC
310°
5 KTS
15 miles Broken
22,000' AGL
-3° C
27° F
-4° C
25° F
93% 29.26" Hg
993.5 hPa
VFR
Nov-24
00:00 UTC
15 miles Broken
20,000' AGL
-2° C
28° F
-3° C
27° F
93% 29.28" Hg
994 hPa
VFR
Nov-23
23:00 UTC
140°
4 KTS
15 miles Broken
25,000' AGL
C
32° F
-2° C
28° F
87% 29.31" Hg
995.2 hPa
VFR
Nov-23
22:00 UTC
150°
4 KTS
15 miles Broken
25,000' AGL
C
34° F
-2° C
28° F
81% 29.37" Hg
997.2 hPa
VFR
Nov-23
21:00 UTC
140°
8 KTS
15 miles Broken
25,000' AGL
C
32° F
-3° C
27° F
80% 29.42" Hg
999 hPa
VFR
Nov-23
20:00 UTC
140°
9 KTS
15 miles Broken
25,000' AGL
-1° C
30° F
-4° C
25° F
80% 29.48" Hg
1001.1 hPa
VFR
Nov-23
19:00 UTC
090°
7 KTS
12 miles Broken
25,000' AGL
-2° C
28° F
-4° C
25° F
86% 29.56" Hg
1003.7 hPa
VFR
Nov-23
18:52 UTC
090°
8 KTS
12 miles Broken
25,000' AGL
-2° C
28° F
-4° C
25° F
86% 29.56" Hg
1003.9 hPa
VFR
Nov-23
18:23 UTC
120°
9 KTS
6 miles Broken
500' AGL
-2° C
28° F
-4° C
25° F
86% 29.57" Hg
1004.3 hPa
IFR
Nov-23
18:07 UTC
110°
9 KTS
3 miles Overcast
400' AGL
-3° C
27° F
-4° C
25° F
93% 29.58" Hg
1004.6 hPa
LIFR
Nov-23
17:34 UTC
110°
8 KTS
1 miles Overcast
200' AGL
-4° C
25° F
-5° C
23° F
93% 29.62" Hg
1005.9 hPa
LIFR
Nov-23
17:00 UTC
100°
8 KTS
1 1/2 miles Overcast
300' AGL
-5° C
23° F
-6° C
21° F
93% 29.66" Hg
1007.5 hPa
LIFR
Nov-23
16:41 UTC
100°
9 KTS
2 miles Overcast
300' AGL
-5° C
23° F
-6° C
21° F
93% 29.67" Hg
1008 hPa
LIFR
Nov-23
16:00 UTC
120°
9 KTS
4 miles Overcast
400' AGL
-6° C
21° F
-7° C
19° F
93% 29.7" Hg
1008.9 hPa
LIFR